Regional Weather Roundup
Issued by NWS Charleston, WV

Home | Current Version | Previous Version | Graphics & Text | Print | Product List | Glossary On
Versions: 1 2 3 4 5 6 7 8 9 10 11 12 13 14 15 16 17 18 19 20 21 22 23 24 25 26 27 28 29 30 31 32 33 34 35 36 37 38 39 40 41 42 43 44 45 46 47 48 49 50
899
ASUS41 KRLX 021210
RWRRLX
West Virginia Regional Weather Roundup
National Weather Service Charleston WV
800 AM EDT MON MAY 02 2016

Note: "fair" indicates few or no clouds below 12,000 feet with no
significant weather and/or obstructions to visibility.

WVZ003-021300-
Northern Panhandle of West Virginia

CITY           SKY/WX    TMP DP  RH WIND       PRES   REMARKS
WHEELING       CLOUDY    59  56  89 SW9G17    29.91R
$$

WVZ009-021300-
Northwest West Virginia

CITY           SKY/WX    TMP DP  RH WIND       PRES   REMARKS
PARKERSBURG    PTSUNNY   62  59  90 SW8       29.95R
$$

WVZ006-021300-
Western West Virginia

CITY           SKY/WX    TMP DP  RH WIND       PRES   REMARKS
HUNTINGTON       N/A     64  61  90 S7        29.96R
$$

WVZ015-021300-
West Central West Virginia

CITY           SKY/WX    TMP DP  RH WIND       PRES   REMARKS
CHARLESTON     PTSUNNY   65  61  87 SW5       29.97R
$$

WVZ022-031-021300-
North Central West Virginia

CITY           SKY/WX    TMP DP  RH WIND       PRES   REMARKS
CLARKSBURG     CLOUDY    60  58  92 S3        29.95R
MORGANTOWN     CLOUDY    60  56  86 VRB5      29.94R
$$

WVZ025-035-042-045-021300-
Southern West Virginia

CITY           SKY/WX    TMP DP  RH WIND       PRES   REMARKS
BECKLEY          N/A     62  59  90 SW8       30.03S
LOGAN          NOT AVBL
BLUEFIELD      PTSUNNY   60  58  92 W8        30.06R
LEWISBURG      CLOUDY    57  57 100 CALM      30.03S FOG
$$

WVZ047-021300-
Northern Mountains of West Virginia

CITY           SKY/WX    TMP DP  RH WIND       PRES   REMARKS
ELKINS         PTSUNNY   59  56  89 CALM      29.99S
$$

WVZ052-021300-
Eastern Panhandle of West Virginia

CITY           SKY/WX    TMP DP  RH WIND       PRES   REMARKS
MARTINSBURG    CLOUDY    55  55 100 S6        29.95S FOG
PETERSBURG     PTSUNNY   61  60  96 E3        29.96F
$$




USA.gov is the U.S. government's official web portal to all federal, state and local government web resources and services.